Location: ?????????
(55.6553°N, 38.9075°E)
Time: 11:43:00
(UTC+00:00)

Cosmos 1954 Rocket - Pass Details

Date: 18 October 2019
Orbit: 753 x 781 km, 74.1° (Epoch: 17 November)

Event Time Altitude Azimuth Distance (km) Brightness Sun altitude
Rises 03:04:37 0° 206° (SSW) 3,229 7.0 -8.5°
Reaches altitude 10° 03:06:59 10° 207° (SSW) 2,302 6.3 -8.2°
Maximum altitude 03:12:13 88° 294° (WNW) 771 4.0 -7.5°
Drops below altitude 10° 03:17:27 10° 28° (NNE) 2,300 6.8 -6.7°
Sets 03:19:50 0° 29° (NNE) 3,227 7.5 -6.4°
